This demonstration page uses our WeatherBlox Daily Observations layout. Learn more.

Left ArrowRight Arrow

41.12389, -100.76542

Hourly Observations for March 4, 2018

Temp ( °F °C ) Dew Point ( °F °C ) Humidity (%) Winds ( mph kmh ) Pressure ( in mb ) Visibility ( mi km ) Precip ( " mm )
12:53 am 00:53 Clear 39 3.9 36 2.2 89 89 ESE 12 19 29.75 1007 10 16 0.00 0.00
1:53 am 01:53 Clear 48 8.9 43 6.1 83 83 ESE 15 24 29.72 1007 10 16 0.00 0.00
2:53 am 02:53 Clear 50 10 45 7.2 83 83 SE 14 22 29.70 1006 10 16 0.00 0.00
3:53 am 03:53 Clear 48 8.9 44 6.7 86 86 E 10 17 29.68 1005 10 16 0.00 0.00
4:53 am 04:53 Clear 46 7.8 42 5.6 86 86 ESE 10 17 29.69 1005 10 16 0.00 0.00
5:53 am 05:53 Clear 42 5.6 40 4.4 92 92 SE 10 17 29.68 1005 8 13 0.00 0.00
6:44 am 06:44 Mostly Cloudy with Mist and Fog 42 5.6 40 4.4 92 92 E 6 9 29.71 1006 5 8 0.00 0.00
6:53 am 06:53 Mostly Cloudy with Mist and Fog 41 5 40 4.4 96 96 E 6 9 29.70 1006 5 8 0.00 0.00
7:05 am 07:05 Mostly Cloudy with Mist and Fog 43 6.1 42 5.6 97 97 E 7 11 29.71 1006 6 10 0.00 0.00
7:53 am 07:53 Cloudy 47 8.3 44 6.7 90 90 Calm 29.70 1006 7 11 0.00 0.00
8:53 am 08:53 Cloudy 47 8.3 45 7.2 93 93 S 8 13 29.70 1006 7 11 0.00 0.00
9:15 am 09:15 Partly Cloudy 48 8.9 44 6.7 86 86 SSW 10 17 29.68 1005 9 14 0.00 0.00
9:49 am 09:49 Mostly Cloudy 46 8 43 6 87 87 SSW 6 9 29.68 1005 10 16 0.00 0.00
9:53 am 09:53 Mostly Cloudy 47 8.3 43 6.1 86 86 S 6 9 29.69 1006 10 16 0.00 0.00
10:28 am 10:28 Partly Cloudy 49 9.4 42 5.6 77 77 SSW 9 15 29.68 1005 10 16 0.00 0.00
10:53 am 10:53 Sunny 51 10.6 43 6.1 74 74 SSW 8 13 29.67 1005 10 16 0.00 0.00
11:53 am 11:53 Sunny 54 12.2 40 4.4 59 59 SW 8 13 29.66 1004 10 16 0.00 0.00
12:53 pm 12:53 Sunny 59 15 41 5 51 51 VRB 6 9 29.62 1003 10 16 0.00 0.00
1:53 pm 13:53 Sunny 62 16.7 41 5 46 46 SSW 10 17 29.56 1001 10 16 0.00 0.00
2:53 pm 14:53 Sunny 65 18.3 40 4.4 40 40 SSW 12 19 29.52 1000 10 16 0.00 0.00
3:53 pm 15:53 Sunny 66 18.9 36 2.2 33 33 Calm 29.51 999 10 16 0.00 0.00
4:53 pm 16:53 Sunny 61 16.1 41 5 48 48 NNW 8 13 29.50 999 10 16 0.00 0.00
5:53 pm 17:53 Sunny 58 14.4 42 5.6 56 56 NNE 15 24 29.51 999 10 16 0.00 0.00
6:53 pm 18:53 Clear 48 8.9 38 3.3 68 68 NNE 21 33 29.54 1000 10 16 0.00 0.00
7:53 pm 19:53 Mostly Clear 38 3.3 32 0 79 79 NNW 21 33 29.63 1003 10 16 0.00 0.00
8:08 pm 20:08 Mostly Cloudy 38 3.3 31 -0.6 76 76 N 20 31 29.68 1005 10 16 0.00 0.00
8:53 pm 20:53 Mostly Cloudy 36 2.2 30 -1.1 79 79 N 20 31 29.66 1005 10 16 0.00 0.00
9:53 pm 21:53 Cloudy 36 2.2 29 -1.7 76 76 NNW 24 39 29.71 1006 10 16 0.00 0.00
10:22 pm 22:22 Cloudy 36 2.2 29 -1.7 76 76 NNW 18 30 29.80 1009 10 16 0.00 0.00
10:53 pm 22:53 Cloudy 36 2.2 29 -1.7 76 76 NNW 22 35 29.73 1007 10 16 0.00 0.00
11:50 pm 23:50 Cloudy 34 1 28 -2 81 81 NNW 20 31 29.83 1010 10 16 0.00 0.00
11:53 pm 23:53 Cloudy 34 1.1 28 -2.2 79 79 NNW 22 35 29.75 1007 10 16 0.00 0.00

Powered by AerisWeather